Year,Month,Day,Hour,Minute,Value (Times are PST for insolation in W/m^2)
2006,01,27,00,00,0.00
2006,01,27,00,01,0.00
2006,01,27,00,02,0.00
2006,01,27,00,03,0.00
2006,01,27,00,04,0.00
2006,01,27,00,05,0.00
2006,01,27,00,06,0.00
2006,01,27,00,07,0.00
2006,01,27,00,08,0.00
2006,01,27,00,09,0.00
2006,01,27,00,10,0.00
2006,01,27,00,11,0.00
2006,01,27,00,12,0.00
2006,01,27,00,13,0.00
2006,01,27,00,14,0.00
2006,01,27,00,15,0.00
2006,01,27,00,16,0.00
2006,01,27,00,17,0.00
2006,01,27,00,18,0.00
2006,01,27,00,19,0.00
2006,01,27,00,20,0.00
2006,01,27,00,21,0.00
2006,01,27,00,22,0.00
2006,01,27,00,23,0.00
2006,01,27,00,24,0.00
2006,01,27,00,25,0.00
2006,01,27,00,26,0.00
2006,01,27,00,27,0.00
2006,01,27,00,28,0.00
2006,01,27,00,29,0.00
2006,01,27,00,30,0.00
2006,01,27,00,31,0.00
2006,01,27,00,32,0.00
2006,01,27,00,33,0.00
2006,01,27,00,34,0.00
2006,01,27,00,35,0.00
2006,01,27,00,36,0.00
2006,01,27,00,37,0.00
2006,01,27,00,38,0.00
2006,01,27,00,39,0.00
2006,01,27,00,40,0.00
2006,01,27,00,41,0.00
2006,01,27,00,42,0.00
2006,01,27,00,43,0.00
2006,01,27,00,44,0.00
2006,01,27,00,45,0.00
2006,01,27,00,46,0.00
2006,01,27,00,47,0.00
2006,01,27,00,48,0.00
2006,01,27,00,49,0.00
2006,01,27,00,50,0.00
2006,01,27,00,51,0.00
2006,01,27,00,52,0.00
2006,01,27,00,53,0.00
2006,01,27,00,54,0.00
2006,01,27,00,55,0.00
2006,01,27,00,56,0.00
2006,01,27,00,57,0.00
2006,01,27,00,58,0.00
2006,01,27,00,59,0.00
2006,01,27,01,00,0.00
2006,01,27,01,01,0.00
2006,01,27,01,02,0.00
2006,01,27,01,03,0.00
2006,01,27,01,04,0.00
2006,01,27,01,05,0.00
2006,01,27,01,06,0.00
2006,01,27,01,07,0.00
2006,01,27,01,08,0.00
2006,01,27,01,09,0.00
2006,01,27,01,10,0.00
2006,01,27,01,11,0.00
2006,01,27,01,12,0.00
2006,01,27,01,13,0.00
2006,01,27,01,14,0.00
2006,01,27,01,15,0.00
2006,01,27,01,16,0.00
2006,01,27,01,17,0.00
2006,01,27,01,18,0.00
2006,01,27,01,19,0.00
2006,01,27,01,20,0.00
2006,01,27,01,21,0.00
2006,01,27,01,22,0.00
2006,01,27,01,23,0.00
2006,01,27,01,24,0.00
2006,01,27,01,25,0.00
2006,01,27,01,26,0.00
2006,01,27,01,27,0.00
2006,01,27,01,28,0.00
2006,01,27,01,29,0.00
2006,01,27,01,30,0.00
2006,01,27,01,31,0.00
2006,01,27,01,32,0.00
2006,01,27,01,33,0.00
2006,01,27,01,34,0.00
2006,01,27,01,35,0.00
2006,01,27,01,36,0.00
2006,01,27,01,37,0.00
2006,01,27,01,38,0.00
2006,01,27,01,39,0.00
2006,01,27,01,40,0.00
2006,01,27,01,41,0.00
2006,01,27,01,42,0.00
2006,01,27,01,43,0.00
2006,01,27,01,44,0.00
2006,01,27,01,45,0.00
2006,01,27,01,46,0.00
2006,01,27,01,47,0.00
2006,01,27,01,48,0.00
2006,01,27,01,49,0.00
2006,01,27,01,50,0.00
2006,01,27,01,51,0.00
2006,01,27,01,52,0.00
2006,01,27,01,53,0.00
2006,01,27,01,54,0.00
2006,01,27,01,55,0.00
2006,01,27,01,56,0.00
2006,01,27,01,57,0.00
2006,01,27,01,58,0.00
2006,01,27,01,59,0.00
2006,01,27,02,00,0.00
2006,01,27,02,01,0.00
2006,01,27,02,02,0.00
2006,01,27,02,03,0.00
2006,01,27,02,04,0.00
2006,01,27,02,05,0.00
2006,01,27,02,06,0.00
2006,01,27,02,07,0.00
2006,01,27,02,08,0.00
2006,01,27,02,09,0.00
2006,01,27,02,10,0.00
2006,01,27,02,11,0.00
2006,01,27,02,12,0.00
2006,01,27,02,13,0.00
2006,01,27,02,14,0.00
2006,01,27,02,15,0.00
2006,01,27,02,16,0.00
2006,01,27,02,17,0.00
2006,01,27,02,18,0.00
2006,01,27,02,19,0.00
2006,01,27,02,20,0.00
2006,01,27,02,21,0.00
2006,01,27,02,22,0.00
2006,01,27,02,23,0.00
2006,01,27,02,24,0.00
2006,01,27,02,25,0.00
2006,01,27,02,26,0.00
2006,01,27,02,27,0.00
2006,01,27,02,28,0.00
2006,01,27,02,29,0.00
2006,01,27,02,30,0.00
2006,01,27,02,31,0.00
2006,01,27,02,32,0.00
2006,01,27,02,33,0.00
2006,01,27,02,34,0.00
2006,01,27,02,35,0.00
2006,01,27,02,36,0.00
2006,01,27,02,37,0.00
2006,01,27,02,38,0.00
2006,01,27,02,39,0.00
2006,01,27,02,40,0.00
2006,01,27,02,41,0.00
2006,01,27,02,42,0.00
2006,01,27,02,43,0.00
2006,01,27,02,44,0.00
2006,01,27,02,45,0.00
2006,01,27,02,46,0.00
2006,01,27,02,47,0.00
2006,01,27,02,48,0.00
2006,01,27,02,49,0.00
2006,01,27,02,50,0.00
2006,01,27,02,51,0.00
2006,01,27,02,52,0.00
2006,01,27,02,53,0.00
2006,01,27,02,54,0.00
2006,01,27,02,55,0.00
2006,01,27,02,56,0.00
2006,01,27,02,57,0.00
2006,01,27,02,58,0.00
2006,01,27,02,59,0.00
2006,01,27,03,00,0.00
2006,01,27,03,01,0.00
2006,01,27,03,02,0.00
2006,01,27,03,03,0.00
2006,01,27,03,04,0.00
2006,01,27,03,05,0.00
2006,01,27,03,06,0.00
2006,01,27,03,07,0.00
2006,01,27,03,08,0.00
2006,01,27,03,09,0.00
2006,01,27,03,10,0.00
2006,01,27,03,11,0.00
2006,01,27,03,12,0.00
2006,01,27,03,13,0.00
2006,01,27,03,14,0.00
2006,01,27,03,15,0.00
2006,01,27,03,16,0.00
2006,01,27,03,17,0.00
2006,01,27,03,18,0.00
2006,01,27,03,19,0.00
2006,01,27,03,20,0.00
2006,01,27,03,21,0.00
2006,01,27,03,22,0.00
2006,01,27,03,23,0.00
2006,01,27,03,24,0.00
2006,01,27,03,25,0.00
2006,01,27,03,26,0.00
2006,01,27,03,27,0.00
2006,01,27,03,28,0.00
2006,01,27,03,29,0.00
2006,01,27,03,30,0.00
2006,01,27,03,31,0.00
2006,01,27,03,32,0.00
2006,01,27,03,33,0.00
2006,01,27,03,34,0.00
2006,01,27,03,35,0.00
2006,01,27,03,36,0.00
2006,01,27,03,37,0.00
2006,01,27,03,38,0.00
2006,01,27,03,39,0.00
2006,01,27,03,40,0.00
2006,01,27,03,41,0.00
2006,01,27,03,42,0.00
2006,01,27,03,43,0.00
2006,01,27,03,44,0.00
2006,01,27,03,45,0.00
2006,01,27,03,46,0.00
2006,01,27,03,47,0.00
2006,01,27,03,48,0.00
2006,01,27,03,49,0.00
2006,01,27,03,50,0.00
2006,01,27,03,51,0.00
2006,01,27,03,52,0.00
2006,01,27,03,53,0.00
2006,01,27,03,54,0.00
2006,01,27,03,55,0.00
2006,01,27,03,56,0.00
2006,01,27,03,57,0.00
2006,01,27,03,58,0.00
2006,01,27,03,59,0.00
2006,01,27,04,00,0.00
2006,01,27,04,01,0.00
2006,01,27,04,02,0.00
2006,01,27,04,03,0.00
2006,01,27,04,04,0.00
2006,01,27,04,05,0.00
2006,01,27,04,06,0.00
2006,01,27,04,07,0.00
2006,01,27,04,08,0.00
2006,01,27,04,09,0.00
2006,01,27,04,10,0.00
2006,01,27,04,11,0.00
2006,01,27,04,12,0.00
2006,01,27,04,13,0.00
2006,01,27,04,14,0.00
2006,01,27,04,15,0.00
2006,01,27,04,16,0.00
2006,01,27,04,17,0.00
2006,01,27,04,18,0.00
2006,01,27,04,19,0.00
2006,01,27,04,20,0.00
2006,01,27,04,21,0.00
2006,01,27,04,22,0.00
2006,01,27,04,23,0.00
2006,01,27,04,24,0.00
2006,01,27,04,25,0.00
2006,01,27,04,26,0.00
2006,01,27,04,27,0.00
2006,01,27,04,28,0.00
2006,01,27,04,29,0.00
2006,01,27,04,30,0.00
2006,01,27,04,31,0.00
2006,01,27,04,32,0.00
2006,01,27,04,33,0.00
2006,01,27,04,34,0.00
2006,01,27,04,35,0.00
2006,01,27,04,36,0.00
2006,01,27,04,37,0.00
2006,01,27,04,38,0.00
2006,01,27,04,39,0.00
2006,01,27,04,40,0.00
2006,01,27,04,41,0.00
2006,01,27,04,42,0.00
2006,01,27,04,43,0.00
2006,01,27,04,44,0.00
2006,01,27,04,45,0.00
2006,01,27,04,46,0.00
2006,01,27,04,47,0.00
2006,01,27,04,48,0.00
2006,01,27,04,49,0.00
2006,01,27,04,50,0.00
2006,01,27,04,51,0.00
2006,01,27,04,52,0.00
2006,01,27,04,53,0.00
2006,01,27,04,54,0.00
2006,01,27,04,55,0.00
2006,01,27,04,56,0.00
2006,01,27,04,57,0.00
2006,01,27,04,58,0.00
2006,01,27,04,59,0.00
2006,01,27,05,00,0.00
2006,01,27,05,01,0.00
2006,01,27,05,02,0.00
2006,01,27,05,03,0.00
2006,01,27,05,04,0.00
2006,01,27,05,05,0.00
2006,01,27,05,06,0.00
2006,01,27,05,07,0.00
2006,01,27,05,08,0.00
2006,01,27,05,09,0.00
2006,01,27,05,10,0.00
2006,01,27,05,11,0.00
2006,01,27,05,12,0.00
2006,01,27,05,13,0.00
2006,01,27,05,14,0.00
2006,01,27,05,15,0.00
2006,01,27,05,16,0.00
2006,01,27,05,17,0.00
2006,01,27,05,18,0.00
2006,01,27,05,19,0.00
2006,01,27,05,20,0.00
2006,01,27,05,21,0.00
2006,01,27,05,22,0.00
2006,01,27,05,23,0.00
2006,01,27,05,24,0.00
2006,01,27,05,25,0.00
2006,01,27,05,26,0.00
2006,01,27,05,27,0.00
2006,01,27,05,28,0.00
2006,01,27,05,29,0.00
2006,01,27,05,30,0.00
2006,01,27,05,31,0.00
2006,01,27,05,32,0.00
2006,01,27,05,33,0.00
2006,01,27,05,34,0.00
2006,01,27,05,35,0.00
2006,01,27,05,36,0.00
2006,01,27,05,37,0.00
2006,01,27,05,38,0.00
2006,01,27,05,39,0.00
2006,01,27,05,40,0.00
2006,01,27,05,41,0.00
2006,01,27,05,42,0.00
2006,01,27,05,43,0.00
2006,01,27,05,44,0.00
2006,01,27,05,45,0.00
2006,01,27,05,46,0.00
2006,01,27,05,47,0.00
2006,01,27,05,48,0.00
2006,01,27,05,49,0.00
2006,01,27,05,50,0.00
2006,01,27,05,51,0.00
2006,01,27,05,52,0.00
2006,01,27,05,53,0.00
2006,01,27,05,54,0.00
2006,01,27,05,55,0.00
2006,01,27,05,56,0.00
2006,01,27,05,57,0.00
2006,01,27,05,58,0.00
2006,01,27,05,59,0.00
2006,01,27,06,00,0.00
2006,01,27,06,01,0.00
2006,01,27,06,02,0.00
2006,01,27,06,03,0.00
2006,01,27,06,04,0.00
2006,01,27,06,05,0.00
2006,01,27,06,06,0.00
2006,01,27,06,07,0.00
2006,01,27,06,08,0.00
2006,01,27,06,09,0.00
2006,01,27,06,10,0.00
2006,01,27,06,11,0.00
2006,01,27,06,12,0.00
2006,01,27,06,13,0.00
2006,01,27,06,14,0.00
2006,01,27,06,15,0.00
2006,01,27,06,16,0.00
2006,01,27,06,17,0.00
2006,01,27,06,18,0.00
2006,01,27,06,19,0.00
2006,01,27,06,20,0.00
2006,01,27,06,21,0.00
2006,01,27,06,22,0.00
2006,01,27,06,23,0.00
2006,01,27,06,24,0.00
2006,01,27,06,25,0.00
2006,01,27,06,26,0.00
2006,01,27,06,27,0.00
2006,01,27,06,28,0.00
2006,01,27,06,29,0.00
2006,01,27,06,30,0.00
2006,01,27,06,31,0.00
2006,01,27,06,32,0.00
2006,01,27,06,33,0.00
2006,01,27,06,34,0.00
2006,01,27,06,35,0.00
2006,01,27,06,36,0.00
2006,01,27,06,37,0.00
2006,01,27,06,38,0.00
2006,01,27,06,39,0.00
2006,01,27,06,40,0.00
2006,01,27,06,41,0.00
2006,01,27,06,42,0.00
2006,01,27,06,43,0.00
2006,01,27,06,44,0.00
2006,01,27,06,45,0.00
2006,01,27,06,46,0.00
2006,01,27,06,47,0.00
2006,01,27,06,48,0.00
2006,01,27,06,49,0.00
2006,01,27,06,50,0.00
2006,01,27,06,51,0.00
2006,01,27,06,52,0.00
2006,01,27,06,53,0.00
2006,01,27,06,54,0.00
2006,01,27,06,55,0.00
2006,01,27,06,56,0.00
2006,01,27,06,57,0.00
2006,01,27,06,58,0.00
2006,01,27,06,59,0.00
2006,01,27,07,00,0.00
2006,01,27,07,01,0.00
2006,01,27,07,02,0.00
2006,01,27,07,03,0.00
2006,01,27,07,04,0.00
2006,01,27,07,05,0.00
2006,01,27,07,06,0.00
2006,01,27,07,07,0.00
2006,01,27,07,08,0.00
2006,01,27,07,09,0.00
2006,01,27,07,10,0.00
2006,01,27,07,11,0.00
2006,01,27,07,12,0.00
2006,01,27,07,13,0.00
2006,01,27,07,14,0.00
2006,01,27,07,15,0.00
2006,01,27,07,16,0.00
2006,01,27,07,17,0.00
2006,01,27,07,18,0.00
2006,01,27,07,19,0.00
2006,01,27,07,20,0.00
2006,01,27,07,21,0.00
2006,01,27,07,22,0.00
2006,01,27,07,23,0.00
2006,01,27,07,24,0.00
2006,01,27,07,25,0.00
2006,01,27,07,26,0.00
2006,01,27,07,27,0.00
2006,01,27,07,28,0.00
2006,01,27,07,29,0.00
2006,01,27,07,30,0.00
2006,01,27,07,31,0.00
2006,01,27,07,32,0.00
2006,01,27,07,33,0.00
2006,01,27,07,34,0.00
2006,01,27,07,35,0.00
2006,01,27,07,36,0.00
2006,01,27,07,37,0.00
2006,01,27,07,38,0.00
2006,01,27,07,39,0.00
2006,01,27,07,40,0.00
2006,01,27,07,41,0.00
2006,01,27,07,42,0.00
2006,01,27,07,43,0.00
2006,01,27,07,44,0.00
2006,01,27,07,45,0.00
2006,01,27,07,46,0.00
2006,01,27,07,47,0.00
2006,01,27,07,48,0.00
2006,01,27,07,49,0.00
2006,01,27,07,50,0.00
2006,01,27,07,51,0.00
2006,01,27,07,52,0.00
2006,01,27,07,53,0.00
2006,01,27,07,54,0.00
2006,01,27,07,55,0.00
2006,01,27,07,56,0.00
2006,01,27,07,57,0.00
2006,01,27,07,58,0.00
2006,01,27,07,59,0.00
2006,01,27,08,00,0.00
2006,01,27,08,01,0.00
2006,01,27,08,02,0.00
2006,01,27,08,03,0.00
2006,01,27,08,04,0.00
2006,01,27,08,05,0.00
2006,01,27,08,06,0.00
2006,01,27,08,07,0.00
2006,01,27,08,08,0.00
2006,01,27,08,09,0.00
2006,01,27,08,10,0.00
2006,01,27,08,11,0.00
2006,01,27,08,12,0.00
2006,01,27,08,13,0.00
2006,01,27,08,14,0.00
2006,01,27,08,15,0.00
2006,01,27,08,16,0.00
2006,01,27,08,17,0.00
2006,01,27,08,18,1.80
2006,01,27,08,19,5.00
2006,01,27,08,20,5.00
2006,01,27,08,21,5.00
2006,01,27,08,22,5.00
2006,01,27,08,23,5.00
2006,01,27,08,24,5.00
2006,01,27,08,25,5.00
2006,01,27,08,26,5.00
2006,01,27,08,27,5.00
2006,01,27,08,28,0.20
2006,01,27,08,29,0.00
2006,01,27,08,30,0.00
2006,01,27,08,31,0.00
2006,01,27,08,32,0.00
2006,01,27,08,33,0.00
2006,01,27,08,34,0.00
2006,01,27,08,35,0.00
2006,01,27,08,36,0.00
2006,01,27,08,37,2.80
2006,01,27,08,38,5.00
2006,01,27,08,39,5.00
2006,01,27,08,40,5.30
2006,01,27,08,41,7.00
2006,01,27,08,42,8.70
2006,01,27,08,43,11.00
2006,01,27,08,44,13.30
2006,01,27,08,45,15.70
2006,01,27,08,46,20.00
2006,01,27,08,47,26.60
2006,01,27,08,48,32.30
2006,01,27,08,49,38.10
2006,01,27,08,50,42.90
2006,01,27,08,51,48.90
2006,01,27,08,52,57.50
2006,01,27,08,53,65.20
2006,01,27,08,54,70.00
2006,01,27,08,55,70.00
2006,01,27,08,56,71.60
2006,01,27,08,57,67.00
2006,01,27,08,58,61.10
2006,01,27,08,59,58.00
2006,01,27,09,00,59.00
2006,01,27,09,01,60.00
2006,01,27,09,02,56.90
2006,01,27,09,03,52.90
2006,01,27,09,04,48.60
2006,01,27,09,05,47.00
2006,01,27,09,06,47.00
2006,01,27,09,07,47.00
2006,01,27,09,08,47.00
2006,01,27,09,09,47.80
2006,01,27,09,10,57.90
2006,01,27,09,11,65.80
2006,01,27,09,12,73.80
2006,01,27,09,13,81.20
2006,01,27,09,14,85.50
2006,01,27,09,15,88.20
2006,01,27,09,16,90.30
2006,01,27,09,17,91.00
2006,01,27,09,18,90.40
2006,01,27,09,19,88.50
2006,01,27,09,20,86.30
2006,01,27,09,21,85.60
2006,01,27,09,22,81.20
2006,01,27,09,23,75.60
2006,01,27,09,24,74.00
2006,01,27,09,25,74.00
2006,01,27,09,26,70.50
2006,01,27,09,27,70.00
2006,01,27,09,28,70.60
2006,01,27,09,29,73.90
2006,01,27,09,30,76.00
2006,01,27,09,31,85.10
2006,01,27,09,32,92.80
2006,01,27,09,33,99.00
2006,01,27,09,34,106.40
2006,01,27,09,35,111.00
2006,01,27,09,36,119.80
2006,01,27,09,37,137.50
2006,01,27,09,38,141.00
2006,01,27,09,39,143.50
2006,01,27,09,40,190.60
2006,01,27,09,41,253.00
2006,01,27,09,42,268.00
2006,01,27,09,43,234.30
2006,01,27,09,44,217.00
2006,01,27,09,45,204.00
2006,01,27,09,46,189.40
2006,01,27,09,47,153.50
2006,01,27,09,48,137.50
2006,01,27,09,49,122.40
2006,01,27,09,50,117.90
2006,01,27,09,51,98.00
2006,01,27,09,52,98.00
2006,01,27,09,53,116.80
2006,01,27,09,54,134.00
2006,01,27,09,55,314.90
2006,01,27,09,56,332.60
2006,01,27,09,57,190.00
2006,01,27,09,58,179.10
2006,01,27,09,59,165.00
2006,01,27,10,00,165.00
2006,01,27,10,01,165.00
2006,01,27,10,02,166.20
2006,01,27,10,03,174.00
2006,01,27,10,04,163.80
2006,01,27,10,05,146.20
2006,01,27,10,06,145.50
2006,01,27,10,07,136.40
2006,01,27,10,08,135.00
2006,01,27,10,09,140.30
2006,01,27,10,10,154.30
2006,01,27,10,11,162.00
2006,01,27,10,12,169.60
2006,01,27,10,13,171.90
2006,01,27,10,14,172.00
2006,01,27,10,15,172.00
2006,01,27,10,16,153.80
2006,01,27,10,17,135.90
2006,01,27,10,18,142.50
2006,01,27,10,19,152.50
2006,01,27,10,20,156.90
2006,01,27,10,21,160.00
2006,01,27,10,22,160.00
2006,01,27,10,23,167.80
2006,01,27,10,24,173.70
2006,01,27,10,25,173.50
2006,01,27,10,26,167.50
2006,01,27,10,27,160.40
2006,01,27,10,28,158.00
2006,01,27,10,29,158.00
2006,01,27,10,30,176.80
2006,01,27,10,31,192.10
2006,01,27,10,32,199.00
2006,01,27,10,33,196.00
2006,01,27,10,34,184.50
2006,01,27,10,35,179.00
2006,01,27,10,36,169.00
2006,01,27,10,37,167.50
2006,01,27,10,38,171.80
2006,01,27,10,39,175.60
2006,01,27,10,40,182.00
2006,01,27,10,41,192.00
2006,01,27,10,42,189.00
2006,01,27,10,43,183.30
2006,01,27,10,44,172.00
2006,01,27,10,45,185.60
2006,01,27,10,46,185.70
2006,01,27,10,47,174.00
2006,01,27,10,48,155.70
2006,01,27,10,49,161.20
2006,01,27,10,50,164.90
2006,01,27,10,51,165.30
2006,01,27,10,52,165.50
2006,01,27,10,53,162.00
2006,01,27,10,54,182.70
2006,01,27,10,55,264.80
2006,01,27,10,56,302.00
2006,01,27,10,57,347.00
2006,01,27,10,58,396.00
2006,01,27,10,59,410.70
2006,01,27,11,00,410.20
2006,01,27,11,01,404.00
2006,01,27,11,02,404.00
2006,01,27,11,03,385.00
2006,01,27,11,04,360.30
2006,01,27,11,05,357.00
2006,01,27,11,06,355.70
2006,01,27,11,07,343.00
2006,01,27,11,08,344.20
2006,01,27,11,09,349.70
2006,01,27,11,10,289.70
2006,01,27,11,11,191.90
2006,01,27,11,12,271.90
2006,01,27,11,13,303.50
2006,01,27,11,14,296.00
2006,01,27,11,15,352.00
2006,01,27,11,16,350.60
2006,01,27,11,17,350.00
2006,01,27,11,18,350.30
2006,01,27,11,19,352.30
2006,01,27,11,20,353.00
2006,01,27,11,21,353.00
2006,01,27,11,22,353.00
2006,01,27,11,23,356.50
2006,01,27,11,24,359.00
2006,01,27,11,25,359.00
2006,01,27,11,26,360.40
2006,01,27,11,27,364.30
2006,01,27,11,28,368.30
2006,01,27,11,29,382.80
2006,01,27,11,30,394.60
2006,01,27,11,31,385.90
2006,01,27,11,32,367.60
2006,01,27,11,33,370.00
2006,01,27,11,34,378.80
2006,01,27,11,35,380.90
2006,01,27,11,36,390.80
2006,01,27,11,37,404.00
2006,01,27,11,38,404.00
2006,01,27,11,39,294.60
2006,01,27,11,40,229.00
2006,01,27,11,41,366.20
2006,01,27,11,42,339.10
2006,01,27,11,43,393.30
2006,01,27,11,44,397.50
2006,01,27,11,45,401.20
2006,01,27,11,46,393.20
2006,01,27,11,47,383.60
2006,01,27,11,48,383.40
2006,01,27,11,49,384.20
2006,01,27,11,50,383.00
2006,01,27,11,51,384.40
2006,01,27,11,52,386.70
2006,01,27,11,53,387.00
2006,01,27,11,54,380.80
2006,01,27,11,55,360.00
2006,01,27,11,56,352.10
2006,01,27,11,57,357.70
2006,01,27,11,58,362.00
2006,01,27,11,59,375.20
2006,01,27,12,00,383.00
2006,01,27,12,01,383.00
2006,01,27,12,02,384.20
2006,01,27,12,03,385.00
2006,01,27,12,04,371.70
2006,01,27,12,05,369.50
2006,01,27,12,06,372.40
2006,01,27,12,07,371.00
2006,01,27,12,08,371.00
2006,01,27,12,09,371.00
2006,01,27,12,10,368.80
2006,01,27,12,11,335.90
2006,01,27,12,12,372.00
2006,01,27,12,13,342.00
2006,01,27,12,14,322.00
2006,01,27,12,15,339.70
2006,01,27,12,16,331.20
2006,01,27,12,17,312.60
2006,01,27,12,18,320.00
2006,01,27,12,19,320.00
2006,01,27,12,20,306.90
2006,01,27,12,21,299.00
2006,01,27,12,22,302.40
2006,01,27,12,23,289.30
2006,01,27,12,24,286.30
2006,01,27,12,25,285.00
2006,01,27,12,26,285.00
2006,01,27,12,27,303.50
2006,01,27,12,28,331.20
2006,01,27,12,29,346.10
2006,01,27,12,30,344.50
2006,01,27,12,31,336.00
2006,01,27,12,32,321.70
2006,01,27,12,33,306.30
2006,01,27,12,34,287.20
2006,01,27,12,35,271.00
2006,01,27,12,36,268.10
2006,01,27,12,37,261.80
2006,01,27,12,38,262.80
2006,01,27,12,39,264.00
2006,01,27,12,40,263.20
2006,01,27,12,41,257.20
2006,01,27,12,42,256.20
2006,01,27,12,43,258.00
2006,01,27,12,44,267.70
2006,01,27,12,45,284.50
2006,01,27,12,46,287.00
2006,01,27,12,47,291.10
2006,01,27,12,48,289.30
2006,01,27,12,49,283.30
2006,01,27,12,50,297.00
2006,01,27,12,51,299.00
2006,01,27,12,52,294.70
2006,01,27,12,53,272.50
2006,01,27,12,54,267.10
2006,01,27,12,55,269.50
2006,01,27,12,56,277.20
2006,01,27,12,57,280.80
2006,01,27,12,58,281.00
2006,01,27,12,59,281.00
2006,01,27,13,00,276.70
2006,01,27,13,01,272.00
2006,01,27,13,02,261.00
2006,01,27,13,03,250.30
2006,01,27,13,04,240.10
2006,01,27,13,05,236.00
2006,01,27,13,06,235.00
2006,01,27,13,07,234.70
2006,01,27,13,08,234.00
2006,01,27,13,09,234.00
2006,01,27,13,10,234.00
2006,01,27,13,11,234.80
2006,01,27,13,12,236.00
2006,01,27,13,13,234.60
2006,01,27,13,14,232.40
2006,01,27,13,15,230.00
2006,01,27,13,16,230.00
2006,01,27,13,17,230.80
2006,01,27,13,18,232.00
2006,01,27,13,19,232.00
2006,01,27,13,20,232.00
2006,01,27,13,21,232.00
2006,01,27,13,22,232.00
2006,01,27,13,23,232.00
2006,01,27,13,24,226.00
2006,01,27,13,25,219.00
2006,01,27,13,26,218.00
2006,01,27,13,27,213.60
2006,01,27,13,28,210.40
2006,01,27,13,29,208.10
2006,01,27,13,30,208.10
2006,01,27,13,31,207.60
2006,01,27,13,32,206.10
2006,01,27,13,33,206.00
2006,01,27,13,34,206.00
2006,01,27,13,35,206.50
2006,01,27,13,36,206.40
2006,01,27,13,37,206.00
2006,01,27,13,38,206.00
2006,01,27,13,39,207.00
2006,01,27,13,40,207.00
2006,01,27,13,41,207.00
2006,01,27,13,42,206.40
2006,01,27,13,43,204.40
2006,01,27,13,44,202.20
2006,01,27,13,45,201.50
2006,01,27,13,46,198.20
2006,01,27,13,47,197.00
2006,01,27,13,48,191.10
2006,01,27,13,49,186.40
2006,01,27,13,50,181.00
2006,01,27,13,51,178.80
2006,01,27,13,52,178.00
2006,01,27,13,53,185.00
2006,01,27,13,54,189.40
2006,01,27,13,55,183.90
2006,01,27,13,56,179.50
2006,01,27,13,57,184.10
2006,01,27,13,58,186.80
2006,01,27,13,59,185.00
2006,01,27,14,00,185.00
2006,01,27,14,01,173.90
2006,01,27,14,02,178.70
2006,01,27,14,03,179.00
2006,01,27,14,04,179.00
2006,01,27,14,05,183.00
2006,01,27,14,06,186.00
2006,01,27,14,07,186.00
2006,01,27,14,08,184.50
2006,01,27,14,09,181.60
2006,01,27,14,10,183.00
2006,01,27,14,11,181.80
2006,01,27,14,12,181.00
2006,01,27,14,13,179.20
2006,01,27,14,14,178.50
2006,01,27,14,15,175.40
2006,01,27,14,16,173.10
2006,01,27,14,17,171.40
2006,01,27,14,18,169.50
2006,01,27,14,19,167.30
2006,01,27,14,20,166.70
2006,01,27,14,21,165.00
2006,01,27,14,22,165.00
2006,01,27,14,23,163.80
2006,01,27,14,24,164.50
2006,01,27,14,25,165.00
2006,01,27,14,26,165.00
2006,01,27,14,27,167.30
2006,01,27,14,28,173.00
2006,01,27,14,29,175.30
2006,01,27,14,30,176.00
2006,01,27,14,31,178.20
2006,01,27,14,32,181.00
2006,01,27,14,33,181.00
2006,01,27,14,34,181.00
2006,01,27,14,35,176.30
2006,01,27,14,36,174.00
2006,01,27,14,37,155.90
2006,01,27,14,38,155.00
2006,01,27,14,39,152.10
2006,01,27,14,40,146.00
2006,01,27,14,41,147.40
2006,01,27,14,42,148.80
2006,01,27,14,43,149.00
2006,01,27,14,44,149.00
2006,01,27,14,45,147.80
2006,01,27,14,46,146.00
2006,01,27,14,47,148.20
2006,01,27,14,48,148.10
2006,01,27,14,49,141.30
2006,01,27,14,50,136.10
2006,01,27,14,51,131.40
2006,01,27,14,52,128.00
2006,01,27,14,53,124.50
2006,01,27,14,54,121.30
2006,01,27,14,55,119.70
2006,01,27,14,56,118.00
2006,01,27,14,57,115.70
2006,01,27,14,58,110.60
2006,01,27,14,59,107.50
2006,01,27,15,00,105.10
2006,01,27,15,01,103.60
2006,01,27,15,02,100.70
2006,01,27,15,03,97.50
2006,01,27,15,04,94.50
2006,01,27,15,05,91.50
2006,01,27,15,06,89.90
2006,01,27,15,07,85.60
2006,01,27,15,08,84.00
2006,01,27,15,09,82.50
2006,01,27,15,10,79.60
2006,01,27,15,11,77.40
2006,01,27,15,12,73.80
2006,01,27,15,13,70.00
2006,01,27,15,14,67.30
2006,01,27,15,15,62.50
2006,01,27,15,16,60.60
2006,01,27,15,17,58.40
2006,01,27,15,18,58.20
2006,01,27,15,19,60.60
2006,01,27,15,20,63.20
2006,01,27,15,21,67.10
2006,01,27,15,22,71.10
2006,01,27,15,23,73.70
2006,01,27,15,24,74.00
2006,01,27,15,25,74.00
2006,01,27,15,26,73.20
2006,01,27,15,27,72.00
2006,01,27,15,28,69.90
2006,01,27,15,29,65.70
2006,01,27,15,30,64.30
2006,01,27,15,31,58.80
2006,01,27,15,32,54.60
2006,01,27,15,33,53.00
2006,01,27,15,34,48.60
2006,01,27,15,35,46.00
2006,01,27,15,36,43.70
2006,01,27,15,37,42.00
2006,01,27,15,38,42.00
2006,01,27,15,39,40.80
2006,01,27,15,40,40.00
2006,01,27,15,41,39.10
2006,01,27,15,42,38.60
2006,01,27,15,43,37.00
2006,01,27,15,44,38.00
2006,01,27,15,45,39.00
2006,01,27,15,46,39.00
2006,01,27,15,47,40.00
2006,01,27,15,48,40.00
2006,01,27,15,49,40.00
2006,01,27,15,50,39.50
2006,01,27,15,51,37.70
2006,01,27,15,52,37.00
2006,01,27,15,53,32.20
2006,01,27,15,54,31.60
2006,01,27,15,55,30.00
2006,01,27,15,56,30.00
2006,01,27,15,57,30.00
2006,01,27,15,58,28.40
2006,01,27,15,59,26.10
2006,01,27,16,00,26.00
2006,01,27,16,01,26.00
2006,01,27,16,02,25.50
2006,01,27,16,03,25.00
2006,01,27,16,04,25.00
2006,01,27,16,05,25.00
2006,01,27,16,06,25.00
2006,01,27,16,07,25.40
2006,01,27,16,08,26.00
2006,01,27,16,09,26.00
2006,01,27,16,10,26.00
2006,01,27,16,11,25.90
2006,01,27,16,12,24.40
2006,01,27,16,13,23.00
2006,01,27,16,14,21.80
2006,01,27,16,15,21.00
2006,01,27,16,16,19.30
2006,01,27,16,17,18.80
2006,01,27,16,18,18.00
2006,01,27,16,19,18.00
2006,01,27,16,20,18.00
2006,01,27,16,21,18.00
2006,01,27,16,22,18.00
2006,01,27,16,23,18.00
2006,01,27,16,24,17.30
2006,01,27,16,25,16.00
2006,01,27,16,26,16.00
2006,01,27,16,27,16.00
2006,01,27,16,28,15.90
2006,01,27,16,29,13.60
2006,01,27,16,30,12.00
2006,01,27,16,31,12.00
2006,01,27,16,32,12.00
2006,01,27,16,33,9.70
2006,01,27,16,34,9.00
2006,01,27,16,35,9.00
2006,01,27,16,36,9.00
2006,01,27,16,37,9.00
2006,01,27,16,38,9.00
2006,01,27,16,39,9.00
2006,01,27,16,40,8.80
2006,01,27,16,41,7.00
2006,01,27,16,42,7.00
2006,01,27,16,43,5.80
2006,01,27,16,44,5.00
2006,01,27,16,45,5.00
2006,01,27,16,46,5.00
2006,01,27,16,47,3.70
2006,01,27,16,48,0.00
2006,01,27,16,49,0.00
2006,01,27,16,50,0.00
2006,01,27,16,51,0.00
2006,01,27,16,52,0.00
2006,01,27,16,53,0.00
2006,01,27,16,54,0.00
2006,01,27,16,55,0.00
2006,01,27,16,56,0.00
2006,01,27,16,57,0.00
2006,01,27,16,58,0.00
2006,01,27,16,59,0.00
2006,01,27,17,00,0.00
2006,01,27,17,01,0.00
2006,01,27,17,02,0.00
2006,01,27,17,03,0.00
2006,01,27,17,04,0.00
2006,01,27,17,05,0.00
2006,01,27,17,06,0.00
2006,01,27,17,07,0.00
2006,01,27,17,08,0.00
2006,01,27,17,09,0.00
2006,01,27,17,10,0.00
2006,01,27,17,11,0.00
2006,01,27,17,12,0.00
2006,01,27,17,13,0.00
2006,01,27,17,14,0.00
2006,01,27,17,15,0.00
2006,01,27,17,16,0.00
2006,01,27,17,17,0.00
2006,01,27,17,18,0.00
2006,01,27,17,19,0.00
2006,01,27,17,20,0.00
2006,01,27,17,21,0.00
2006,01,27,17,22,0.00
2006,01,27,17,23,0.00
2006,01,27,17,24,0.00
2006,01,27,17,25,0.00
2006,01,27,17,26,0.00
2006,01,27,17,27,0.00
2006,01,27,17,28,0.00
2006,01,27,17,29,0.00
2006,01,27,17,30,0.00